This demonstration page uses our WeatherBlox Daily Observations layout. Learn more.

40.92945, -100.16068

Hourly Observations for February 26, 2020

Temp ( °F °C ) Dew Point ( °F °C ) Humidity (%) Winds ( mph kmh ) Pressure ( in mb ) Visibility ( mi km ) Precip ( " mm )
12:15 am 00:15 Clear 22 -5.5 18 -8 83 83 NNW 10 17 30.6 1036 10 16.0934 0 0
12:35 am 00:35 Clear 20 -6.6 16 -8.7 85 85 NW 6 9 30.61 1036 10 16.0934 0 0
12:55 am 00:55 Clear 18 -8 14 -9.9 86 86 NW 10 17 30.62 1037 10 16.0934 0 0
1:15 am 01:15 Clear 17 -8.6 13 -10.3 88 88 NW 9 15 30.63 1037 10 16.0934 0 0
1:35 am 01:35 Clear 18 -8 14 -9.8 87 87 NW 10 17 30.62 1037 10 16.0934 0 0
1:55 am 01:55 Clear 15 -9.5 13 -10.8 90 90 WNW 12 19 30.64 1038 10 16.0934 0 0
2:15 am 02:15 Clear 17 -8.5 13 -10.4 86 86 WNW 12 19 30.63 1037 10 16.0934 0 0
2:35 am 02:35 Clear 16 -8.8 13 -10.5 88 88 WNW 15 24 30.63 1037 10 16.0934 0 0
2:55 am 02:55 Clear 16 -8.7 13 -10.5 87 87 NW 14 22 30.62 1037 10 16.0934 0 0
3:15 am 03:15 Clear 16 -9 13 -10.8 87 87 NW 12 19 30.62 1037 10 16.0934 0 0
3:35 am 03:35 Clear 15 -9.6 12 -11.2 88 88 NW 12 19 30.63 1037 10 16.0934 0 0
3:55 am 03:55 Clear 15 -9.6 12 -11.2 88 88 NW 10 17 30.63 1037 10 16.0934 0 0
4:15 am 04:15 Clear 14 -10.2 11 -11.6 90 90 WNW 7 11 30.63 1037 10 16.0934 0 0
4:35 am 04:35 Partly Cloudy 12 -11 10 -12.3 90 90 NW 9 15 30.63 1037 10 16.0934 0 0
4:55 am 04:55 Partly Cloudy 14 -10.2 11 -11.5 90 90 WNW 9 15 30.63 1037 10 16.0934 0 0
5:15 am 05:15 Clear 12 -11.1 10 -12.3 91 91 WNW 7 11 30.64 1037 10 16.0934 0 0
5:35 am 05:35 Partly Cloudy 11 -11.4 9 -12.7 90 90 WNW 6 9 30.64 1038 10 16.0934 0 0
5:55 am 05:55 Mostly Cloudy 10 -12 8 -13.2 91 91 W 6 9 30.65 1038 10 16.0934 0 0
6:15 am 06:15 Mostly Cloudy 12 -11.3 9 -12.6 90 90 W 3 6 30.64 1037 10 16.0934 0 0
6:35 am 06:35 Partly Cloudy 11 -11.9 9 -13 92 92 WNW 6 9 30.64 1038 10 16.0934 0 0
6:55 am 06:55 Partly Cloudy 10 -12.4 8 -13.4 92 92 Calm 30.65 1038 10 16.0934 0 0
7:15 am 07:15 Mostly Cloudy 10 -12.3 8 -13.2 93 93 WNW 6 9 30.65 1038 10 16.0934 0 0
7:35 am 07:35 Partly Cloudy 11 -11.9 9 -12.7 94 94 WNW 7 11 30.64 1038 10 16.0934 0 0
7:55 am 07:55 Sunny 11 -11.5 10 -12.5 92 92 W 3 6 30.63 1037 10 16.0934 0 0
8:15 am 08:15 Sunny 13 -10.5 11 -11.5 92 92 Calm 30.63 1037 10 16.0934 0 0
8:35 am 08:35 Sunny 15 -9.7 13 -10.7 93 93 Calm 30.62 1037 10 16.0934 0 0
8:55 am 08:55 Sunny 16 -9.1 14 -10.2 92 92 Calm 30.62 1037 10 16.0934 0 0
9:15 am 09:15 Sunny 19 -7.5 15 -9.2 88 88 WNW 5 7 30.6 1036 10 16.0934 0 0
9:35 am 09:35 Sunny 20 -6.8 16 -8.9 85 85 WNW 6 9 30.59 1036 10 16.0934 0 0
9:55 am 09:55 Sunny 21 -6.3 17 -8.6 84 84 WNW 6 9 30.57 1035 10 16.0934 0 0
10:15 am 10:15 Sunny 21 -5.9 17 -8.2 84 84 WNW 8 13 30.57 1035 10 16.0934 0 0
10:35 am 10:35 Sunny 22 -5.3 18 -8 82 82 WNW 9 15 30.56 1035 10 16.0934 0 0
10:55 am 10:55 Sunny 24 -4.5 19 -7.3 81 81 WNW 8 13 30.54 1034 10 16.0934 0 0
11:15 am 11:15 Sunny 25 -4 19 -7.2 79 79 WNW 9 15 30.55 1035 10 16.0934 0 0
11:35 am 11:35 Sunny 25 -3.7 19 -7 78 78 WNW 7 11 30.54 1034 10 16.0934 0 0
11:55 am 11:55 Sunny 26 -3.3 20 -6.7 78 78 W 6 9 30.52 1034 10 16.0934 0 0
12:15 pm 12:15 Sunny 27 -2.8 21 -6.3 77 77 W 7 11 30.52 1033 10 16.0934 0 0
12:35 pm 12:35 Sunny 28 -2.2 19 -7.1 69 69 W 7 11 30.49 1033 10 16.0934 0 0
12:55 pm 12:55 Sunny 29 -1.4 20 -6.5 69 69 WSW 7 11 30.47 1032 10 16.0934 0 0
1:15 pm 13:15 Sunny 30 -1 21 -6.1 69 69 WSW 9 15 30.46 1031 10 16.0934 0 0
1:35 pm 13:35 Sunny 30 -1.1 20 -6.4 68 68 WSW 12 19 30.45 1031 10 16.0934 0 0
1:55 pm 13:55 Sunny 30 -0.9 21 -6 69 69 WSW 12 19 30.44 1031 10 16.0934 0 0
2:15 pm 14:15 Sunny 31 -0.7 22 -5.6 70 70 WSW 12 19 30.43 1030 10 16.0934 0 0
2:35 pm 14:35 Sunny 31 -0.8 23 -5.2 72 72 WSW 10 17 30.42 1030 10 16.0934 0 0
2:55 pm 14:55 Sunny 31 -0.5 22 -5.4 70 70 WSW 10 17 30.39 1029 10 16.0934 0 0
3:15 pm 15:15 Sunny 31 -0.4 21 -5.9 67 67 WSW 12 19 30.38 1029 10 16.0934 0 0
3:35 pm 15:35 Sunny 31 -0.5 21 -5.9 67 67 SW 15 24 30.37 1029 10 16.0934 0 0
3:55 pm 15:55 Sunny 31 -0.4 21 -6.1 66 66 SW 12 19 30.36 1028 10 16.0934 0 0
4:15 pm 16:15 Sunny 31 -0.4 21 -6.3 65 65 SW 13 20 30.35 1028 10 16.0934 0 0
4:35 pm 16:35 Sunny 31 -0.7 21 -6 68 68 SW 13 20 30.34 1028 10 16.0934 0 0
4:55 pm 16:55 Sunny 30 -1 21 -5.9 70 70 SW 10 17 30.35 1028 10 16.0934 0 0
5:15 pm 17:15 Sunny 30 -1 22 -5.5 72 72 SW 10 17 30.34 1027 10 16.0934 0 0
5:35 pm 17:35 Sunny 30 -1 22 -5.3 73 73 SW 8 13 30.33 1027 10 16.0934 0 0
5:55 pm 17:55 Sunny 30 -1 23 -5.1 74 74 SW 7 11 30.33 1027 10 16.0934 0 0
6:15 pm 18:15 Partly Cloudy 31 -0.8 22 -5.3 72 72 SW 8 13 30.32 1027 10 16.0934 0 0
6:35 pm 18:35 Clear 30 -1.1 23 -5.1 75 75 SW 7 11 30.32 1027 10 16.0934 0 0
6:55 pm 18:55 Clear 29 -1.5 23 -5.2 76 76 SSW 7 11 30.31 1027 10 16.0934 0 0
7:15 pm 19:15 Clear 29 -1.7 22 -5.5 76 76 SW 9 15 30.3 1026 10 16.0934 0 0
7:35 pm 19:35 Clear 30 -1.3 22 -5.4 74 74 SSW 6 9 30.3 1026 10 16.0934 0 0
7:55 pm 19:55 Clear 30 -1.3 22 -5.5 73 73 SSW 7 11 30.29 1026 10 16.0934 0 0
8:15 pm 20:15 Clear 29 -1.5 22 -5.5 74 74 SSW 7 11 30.28 1025 10 16.0934 0 0
8:35 pm 20:35 Clear 29 -1.7 22 -5.4 76 76 SSW 7 11 30.27 1025 10 16.0934 0 0
8:55 pm 20:55 Mostly Cloudy 29 -1.6 22 -5.3 76 76 SSW 6 9 30.26 1025 10 16.0934 0 0
9:15 pm 21:15 Mostly Cloudy 29 -1.5 22 -5.3 76 76 SW 10 17 30.26 1025 10 16.0934 0 0
9:35 pm 21:35 Partly Cloudy 30 -1.2 22 -5.5 73 73 SW 9 15 30.26 1025 10 16.0934 0 0
9:55 pm 21:55 Cloudy 31 -0.8 22 -5.3 72 72 WSW 10 17 30.26 1025 10 16.0934 0 0
10:15 pm 22:15 Cloudy 30 -1 22 -5.4 72 72 WSW 9 15 30.25 1024 10 16.0934 0 0
10:35 pm 22:35 Partly Cloudy 29 -1.5 22 -5.8 73 73 WSW 9 15 30.25 1024 10 16.0934 0 0
10:55 pm 22:55 Clear 27 -2.9 21 -6.3 78 78 Calm 30.27 1025 10 16.0934 0 0
11:15 pm 23:15 Clear 27 -2.7 20 -6.6 75 75 W 3 6 30.25 1025 10 16.0934 0 0
11:35 pm 23:35 Clear 26 -3.5 20 -6.9 78 78 NNW 5 7 30.26 1025 10 16.0934 0 0
11:55 pm 23:55 Partly Cloudy 23 -5 19 -7.3 84 84 WNW 6 9 30.27 1025 10 16.0934 0 0

Powered by AerisWeather